Location: McFarlands Corners
(41.4117°N, 81.3382°W)
Time: 05:35:26
(UTC+00:00)

Transit 4A - Pass Details

Date: 24 February 2026
Orbit: 864 x 977 km, 66.8° (Epoch: 5 March)

Event Time Altitude Azimuth Distance (km) Brightness Sun altitude
Rises 06:24:02 0° 172° (S) 3,440 - -56.5°
Reaches altitude 10° 06:26:55 10° 159° (SSE) 2,517 - -56.3°
Maximum altitude 06:31:30 24° 106° (ESE) 1,732 - -56.0°
Drops below altitude 10° 06:36:10 10° 54° (NE) 2,581 - -55.6°
Exits shadow 06:38:35 - 44° (NE) 3,358 11.3 -55.4°
Sets 06:39:08 0° 42° (NE) 3,547 11.5 -55.3°
